EW7502 Princeton NJ US current weather conditions

sailwx.info

Wind from 247

Air temperature 3.3° C
Dewpoint -3.7° C

Last reported at 2020-Jan-28 22:00 UTC.
Time now 2020-Jan-28 23:12 UTC

Location: N 40°21' W 074°43'.
View on Google Maps.

See reports from other nearby stations

  
Tides and Currents Weather Stations Pressure Air Temp Water Temp Dewpoint Dewpoint Depression Visibility Wind Speed Wind Dir Waves Ship Positions
date/time (UTC)wind fromknots sea level pressurealtimeterstation pressurevisibilityair tempwater tempwave heightnotes
2020-Jan-28 22:00 247 3.3
2020-Jan-28 21:45 266 3.9
2020-Jan-28 21:30 103 3.9
2020-Jan-28 21:15 290 3.9
2020-Jan-28 21:00 226 3.9
2020-Jan-28 20:46 014 3.9
2020-Jan-28 20:30 236 3.9
2020-Jan-28 20:15 323 3.9
2020-Jan-28 20:00 033 3.9
2020-Jan-28 19:45 350 3.9
2020-Jan-28 19:30 234 3.9
2020-Jan-28 19:15 264 3.9
2020-Jan-28 19:00 272 3.9
2020-Jan-28 18:45 230 3.9
2020-Jan-28 18:30 280 4.4
2020-Jan-28 18:15 223 4.4
2020-Jan-28 18:00 300 5.6
2020-Jan-28 17:45 225 6.7
2020-Jan-28 17:30 068 6.1
2020-Jan-28 17:15 101 6.1
2020-Jan-28 17:00 181 6.7
2020-Jan-28 16:45 250 5.6
2020-Jan-28 16:30 067 6.1
2020-Jan-28 16:15 019 6.7
2020-Jan-28 16:00 232 6.1
2020-Jan-28 15:45 259 6.1
2020-Jan-28 15:35 307 6.1
2020-Jan-28 15:16 069 6.1
2020-Jan-28 15:02 051 5.6
2020-Jan-28 14:46 234 5.0
2020-Jan-28 14:32 167 5.0
2020-Jan-28 14:16 092 4.4
2020-Jan-28 14:01 072 3.3
2020-Jan-28 13:46 303 1.7
2020-Jan-28 13:31 270 -0.0
2020-Jan-28 13:15 209 -1.7
2020-Jan-28 13:01 240 -2.2
2020-Jan-28 12:45 240 -2.2
2020-Jan-28 12:30 240 -1.7
2020-Jan-28 12:15 240 -1.7
2020-Jan-28 12:00 240 -1.1
2020-Jan-28 11:45 240 -0.6
2020-Jan-28 11:30 240 -0.0
2020-Jan-28 11:15 240 0.6
2020-Jan-28 11:00 292 1.1
2020-Jan-28 10:45 292 1.7
2020-Jan-28 10:30 355 1.7
2020-Jan-28 10:15 269 1.7
2020-Jan-28 10:02 332 1.7
2020-Jan-28 09:46 275 2.2
2020-Jan-28 09:31 181 1.7
2020-Jan-28 09:17 263 1.7
2020-Jan-28 09:02 175 1.7
2020-Jan-28 08:46 243 1.7
2020-Jan-28 08:32 236 1.7
2020-Jan-28 08:18 200 1.7
2020-Jan-28 08:02 200 2.2
2020-Jan-28 07:47 200 2.2
2020-Jan-28 07:32 271 2.2
2020-Jan-28 07:16 024 2.2
2020-Jan-28 07:02 310 2.2
2020-Jan-28 06:46 214 2.2
2020-Jan-28 06:31 202 2.2
2020-Jan-28 06:16 268 2.2
2020-Jan-28 06:01 222 2.2
2020-Jan-28 05:46 223 2.2
2020-Jan-28 05:31 223 2.8
2020-Jan-28 05:16 223 2.8
2020-Jan-28 05:02 223 2.8
2020-Jan-28 04:45 225 3.3
2020-Jan-28 04:31 279 3.3
2020-Jan-28 04:16 306 3.3
2020-Jan-28 04:01 232 3.3
2020-Jan-28 03:45 211 2.8
2020-Jan-28 03:33 191 2.2
2020-Jan-28 03:16 191 2.2
2020-Jan-28 03:01 232 1.7
2020-Jan-28 02:46 232 1.7
2020-Jan-28 02:32 232 1.7
2020-Jan-28 02:16 232 1.7
2020-Jan-28 02:00 232 1.7
2020-Jan-28 01:47 232 1.7
2020-Jan-28 01:31 232 1.7
2020-Jan-28 01:16 232 1.7
2020-Jan-28 01:01 232 1.7
2020-Jan-28 00:47 232 2.2
2020-Jan-28 00:30 232 2.2
2020-Jan-28 00:16 232 2.2
2020-Jan-28 00:00 232 2.8
2020-Jan-27 23:46 232 3.3
2020-Jan-27 23:31 232 3.9
2020-Jan-27 23:17 229 4.4
2020-Jan-27 23:01 229 5.0
2020-Jan-27 22:46 256 5.0
2020-Jan-27 22:31 168 5.0
2020-Jan-27 22:16 159 5.6
2020-Jan-27 22:02 292 5.6
2020-Jan-27 21:46 205 5.6
2020-Jan-27 21:31 216 5.6
2020-Jan-27 21:15 253 5.6
2020-Jan-27 21:00 248 6.1
2020-Jan-27 20:46 178 6.1
2020-Jan-27 20:31 198 6.1
2020-Jan-27 20:16 251 6.1
2020-Jan-27 20:01 190 6.1
2020-Jan-27 19:45 221 6.1
2020-Jan-27 19:30 264 6.1
2020-Jan-27 19:17 264 6.1
2020-Jan-27 19:00 243 6.1
2020-Jan-27 18:45 199 5.6
2020-Jan-27 18:30 213 5.6
2020-Jan-27 18:16 209 5.6
2020-Jan-27 18:00 245 5.6
2020-Jan-27 17:46 232 5.6
2020-Jan-27 17:31 190 5.0
2020-Jan-27 17:15 229 5.0
2020-Jan-27 17:00 190 5.0
2020-Jan-27 16:45 192 5.0
2020-Jan-27 16:30 269 5.0
2020-Jan-27 16:15 235 5.0
2020-Jan-27 16:00 243 5.0
2020-Jan-27 15:45 169 5.0
2020-Jan-27 15:32 236 5.0
2020-Jan-27 15:17 279 4.4
2020-Jan-27 15:03 219 4.4
2020-Jan-27 14:46 173 3.9
2020-Jan-27 14:31 209 3.3
2020-Jan-27 14:16 288 3.3
2020-Jan-27 14:01 227 2.8
2020-Jan-27 13:46 210 2.2
2020-Jan-27 13:31 170 1.7
2020-Jan-27 13:16 194 1.1
2020-Jan-27 13:02 234 0.6
2020-Jan-27 12:46 219 0.6
2020-Jan-27 12:31 216 -0.0
2020-Jan-27 12:15 224 -0.0
2020-Jan-27 12:02 223 -0.0
2020-Jan-27 11:45 225 -0.6
2020-Jan-27 11:31 224 -0.6
2020-Jan-27 11:15 250 -1.1
2020-Jan-27 11:00 210 -1.1
2020-Jan-27 10:45 210 -0.6
2020-Jan-27 10:30 240 -0.6
2020-Jan-27 10:15 239 -0.6
2020-Jan-27 10:00 237 -0.6
2020-Jan-27 09:45 237 -0.6
2020-Jan-27 09:30 237 -1.1
2020-Jan-27 09:15 237 -1.1
2020-Jan-27 09:00 237 -1.7
2020-Jan-27 08:45 237 -2.2
2020-Jan-27 08:30 237 -2.2
2020-Jan-27 08:17 237 -2.8
2020-Jan-27 08:02 237 -2.8
2020-Jan-27 07:48 237 -3.3
2020-Jan-27 07:33 237 -3.3
2020-Jan-27 07:16 237 -3.3
2020-Jan-27 07:01 237 -3.3
2020-Jan-27 06:46 237 -3.3
2020-Jan-27 06:34 237 -3.3
2020-Jan-27 06:16 237 -3.3
2020-Jan-27 06:02 237 -3.3
2020-Jan-27 05:47 237 -3.3
2020-Jan-27 05:31 237 -3.3
2020-Jan-27 05:16 237 -3.3
2020-Jan-27 05:01 237 -3.3
2020-Jan-27 04:48 237 -2.8
2020-Jan-27 04:31 237 -2.8
2020-Jan-27 04:16 237 -2.8
2020-Jan-27 04:02 237 -2.2
2020-Jan-27 03:46 237 -2.2
2020-Jan-27 03:31 237 -2.2
2020-Jan-27 03:16 237 -1.7
2020-Jan-27 03:02 237 -1.7
2020-Jan-27 02:47 237 -1.1
2020-Jan-27 02:31 237 -0.6
2020-Jan-27 02:16 237 -0.6
2020-Jan-27 02:01 237 -0.0
2020-Jan-27 01:47 237 0.6
2020-Jan-27 01:31 237 0.6
2020-Jan-27 01:16 237 1.1
2020-Jan-27 01:01 204 1.1
2020-Jan-27 00:46 271 1.7
2020-Jan-27 00:32 232 2.8
2020-Jan-27 00:16 232 3.9
2020-Jan-27 00:02 232 4.4
2020-Jan-26 23:46 196 5.0
2020-Jan-26 23:32 205 5.0
2020-Jan-26 23:16 228 5.0
2020-Jan-26 23:02 238 5.0